TimeEST,TemperatureF,Dew PointF,Humidity,Sea Level PressureIn,VisibilityMPH,Wind Direction,Wind SpeedMPH,Gust SpeedMPH,PrecipitationIn,Events,Conditions,WindDirDegrees,DateUTC
12:15 AM,42.8,28.4,57,30.14,10.0,NW,6.9,-,N/A,,Clear,320,2012-11-21 05:15:00
1:15 AM,39.2,26.6,61,30.13,10.0,WNW,8.1,-,N/A,,Clear,300,2012-11-21 06:15:00
2:35 AM,37.4,26.6,65,30.13,10.0,WNW,6.9,-,N/A,,Clear,290,2012-11-21 07:35:00
2:40 AM,37.4,26.6,65,30.13,10.0,WNW,6.9,-,N/A,,Clear,300,2012-11-21 07:40:00
3:15 AM,37.4,24.8,60,30.13,10.0,NW,6.9,-,N/A,,Clear,310,2012-11-21 08:15:00
3:20 AM,37.4,26.6,65,30.13,10.0,NW,6.9,-,N/A,,Clear,310,2012-11-21 08:20:00
3:55 AM,39.2,23.0,52,30.13,10.0,NNW,6.9,-,N/A,,Clear,330,2012-11-21 08:55:00
4:58 AM,41.0,15.8,36,30.13,10.0,North,8.1,-,N/A,,Clear,350,2012-11-21 09:58:00
5:15 AM,42.8,14.0,31,30.13,10.0,North,8.1,-,N/A,,Clear,350,2012-11-21 10:15:00
5:21 AM,42.8,12.2,29,30.13,10.0,North,9.2,-,N/A,,Clear,360,2012-11-21 10:21:00
5:35 AM,42.8,12.2,29,30.14,10.0,North,6.9,-,N/A,,Clear,360,2012-11-21 10:35:00
6:00 AM,41.0,15.8,36,30.15,10.0,NNW,4.6,-,N/A,,Clear,340,2012-11-21 11:00:00
6:15 AM,39.2,19.4,45,30.15,10.0,NNW,5.8,-,N/A,,Clear,330,2012-11-21 11:15:00
6:21 AM,39.2,19.4,45,30.15,10.0,NW,4.6,-,N/A,,Clear,320,2012-11-21 11:21:00
7:00 AM,39.2,21.2,49,30.16,10.0,NNW,4.6,-,N/A,,Clear,330,2012-11-21 12:00:00
7:15 AM,39.2,15.8,39,30.17,10.0,NNW,9.2,-,N/A,,Clear,340,2012-11-21 12:15:00
7:35 AM,41.0,17.6,39,30.17,10.0,North,5.8,-,N/A,,Clear,350,2012-11-21 12:35:00
7:40 AM,41.0,15.8,36,30.17,10.0,North,6.9,-,N/A,,Clear,350,2012-11-21 12:40:00
7:58 AM,41.0,17.6,39,30.18,10.0,North,5.8,-,N/A,,Clear,360,2012-11-21 12:58:00
8:15 AM,42.8,17.6,36,30.18,10.0,North,5.8,-,N/A,,Clear,10,2012-11-21 13:15:00
9:35 AM,46.4,15.8,29,30.20,10.0,NNW,6.9,-,N/A,,Clear,340,2012-11-21 14:35:00
10:17 AM,48.2,15.8,27,30.20,10.0,North,10.4,-,N/A,,Clear,360,2012-11-21 15:17:00
10:35 AM,48.2,17.6,30,30.20,10.0,North,8.1,-,N/A,,Clear,360,2012-11-21 15:35:00
10:36 AM,48.2,17.6,30,30.20,10.0,North,8.1,-,N/A,,Clear,360,2012-11-21 15:36:00
10:55 AM,48.2,19.4,32,30.20,10.0,NNW,9.2,-,N/A,,Clear,340,2012-11-21 15:55:00
11:36 AM,48.2,24.8,40,30.19,10.0,Calm,Calm,-,N/A,,Clear,0,2012-11-21 16:36:00
11:55 AM,48.2,21.2,34,30.19,10.0,North,4.6,-,N/A,,Clear,10,2012-11-21 16:55:00
12:15 PM,48.2,19.4,32,30.19,10.0,NW,4.6,-,N/A,,Clear,310,2012-11-21 17:15:00
12:36 PM,50.0,26.6,40,30.18,10.0,Calm,Calm,-,N/A,,Clear,0,2012-11-21 17:36:00
1:15 PM,51.8,26.6,38,30.18,10.0,Calm,Calm,-,N/A,,Clear,0,2012-11-21 18:15:00
1:36 PM,51.8,26.6,38,30.18,10.0,NE,5.8,-,N/A,,Clear,40,2012-11-21 18:36:00
1:56 PM,51.8,26.6,38,30.17,10.0,Calm,Calm,-,N/A,,Clear,0,2012-11-21 18:56:00
2:16 PM,50.0,26.6,40,30.17,10.0,Calm,Calm,-,N/A,,Clear,0,2012-11-21 19:16:00
2:36 PM,50.0,26.6,40,30.18,10.0,Calm,Calm,-,N/A,,Clear,0,2012-11-21 19:36:00
2:56 PM,51.8,26.6,38,30.17,10.0,Calm,Calm,-,N/A,,Clear,0,2012-11-21 19:56:00
3:15 PM,50.0,24.8,37,30.18,-9999.0,ENE,3.5,-,N/A,,Unknown,70,2012-11-21 20:15:00
3:55 PM,50.0,23.0,35,30.18,10.0,Calm,Calm,-,N/A,,Clear,0,2012-11-21 20:55:00
4:15 PM,48.2,23.0,37,30.19,7.0,Calm,Calm,-,N/A,,Clear,0,2012-11-21 21:15:00
4:55 PM,46.4,21.2,37,30.19,1.5,Calm,Calm,-,N/A,,Haze,0,2012-11-21 21:55:00
5:15 PM,46.4,23.0,40,30.20,10.0,Calm,Calm,-,N/A,,Clear,0,2012-11-21 22:15:00
5:36 PM,46.4,24.8,43,30.20,10.0,ENE,4.6,-,N/A,,Clear,60,2012-11-21 22:36:00
5:55 PM,46.4,24.8,43,30.21,10.0,NE,4.6,-,N/A,,Clear,50,2012-11-21 22:55:00
5:57 PM,46.4,24.8,43,30.21,10.0,NE,4.6,-,N/A,,Unknown,50,2012-11-21 22:57:00
6:55 PM,44.6,17.6,34,30.22,10.0,NE,4.6,-,N/A,,Clear,40,2012-11-21 23:55:00
7:15 PM,44.6,19.4,37,30.23,10.0,Calm,Calm,-,N/A,,Clear,0,2012-11-22 00:15:00
7:16 PM,44.6,19.4,37,30.23,10.0,NNE,3.5,-,N/A,,Clear,30,2012-11-22 00:16:00
7:55 PM,42.8,17.6,36,30.24,10.0,NNE,4.6,-,N/A,,Clear,20,2012-11-22 00:55:00
8:15 PM,42.8,19.4,39,30.23,10.0,North,5.8,-,N/A,,Clear,360,2012-11-22 01:15:00
8:35 PM,42.8,21.2,42,30.23,10.0,North,6.9,-,N/A,,Clear,360,2012-11-22 01:35:00
9:15 PM,42.8,21.2,42,30.23,10.0,North,5.8,-,N/A,,Clear,10,2012-11-22 02:15:00
9:36 PM,42.8,21.2,42,30.23,10.0,North,5.8,-,N/A,,Clear,360,2012-11-22 02:36:00
9:55 PM,42.8,21.2,42,30.24,10.0,North,5.8,-,N/A,,Clear,360,2012-11-22 02:55:00
11:15 PM,42.8,24.8,49,30.22,10.0,North,5.8,-,N/A,,Clear,350,2012-11-22 04:15:00
11:55 PM,41.0,24.8,53,30.22,10.0,North,3.5,-,N/A,,Clear,360,2012-11-22 04:55:00